Погода в Аксаково

Россия / Республика Башкортостан     54°01′17″N   54°08′55″E
темп.,
°C
ветер,
м/с
пор.,
м/с
влажн.,
%
обл.,
%
осадки,
мм/ч
давл.,
гПа
погр.,
м
23 октября, сб
сб2323:00+9юз91783100 0.0 1006702
02:00+8зюз8168736 0.0 1007641
05:00+7зюз7149340 0.0 1009486
08:00+6юз6149668 0.0 1009432
11:00+9юз7148555 0.0 1011765
14:00+12зюз9155917 0.1 10111773
17:00+11зюз815555 0.1 10121546
20:00+9юз61466100 0.1 1014554
24 октября, вс
вс2423:00+8юз4117896 0.1 1014298
02:00+7юз3984100 0.0 1014199
05:00+7ю3584100 0.0 1012112
08:00+7ююв3898100 2.9 1009316
11:00+5ссз6894100 7.4 1010350
14:00+7з6875100 0.0 1011823
17:00+8зюз586893 0.1 1012993
20:00+5з378070 0.1 1013190
25 октября, пн
пн2523:00+4з248254 0.1 101583
02:00+3з228284 0.0 101514
05:00+3юз1183100 0.0 101510
08:00+3ююз1182100 0.0 101410
11:00+4з1277100 0.0 1014236
14:00+5сз4468100 0.0 1014818
17:00+4ссз466394 0.0 10141074
20:00+2ссз397584 0.0 1016307
26 октября, вт
вт2623:000с81180100 0.0 1019725
02:00−1с713795 0.0 1021718
05:00−3с511825 0.0 1023537
08:00−3с410815 0.0 1024441
11:00−1с5758100 0.0 1026473
14:00+1ссз454515 0.0 1025665
17:00+1зсз244865 0.0 1025175
20:00−1юз235660 0.0 102657
27 октября, ср
ср2723:00−1юз3855100 0.0 1026262
02:00−1юз41059100 0.0 1025265
05:00−1юз511616 0.0 1024285
08:00−2юз410665 0.0 1024268
11:00+1юз610585 0.0 1023391
14:00+4юз795295 0.0 1022614
17:00+3юз61158100 0.0 1021543
20:00+2юз61362100 0.0 1021464